Hourly Data Report for October 04, 2014

All times are specified in Local Standard Time (LST). Add 1 hour to adjust for Daylight Saving Time where and when it is observed.

ST LEONARD CS
NEW BRUNSWICK

47°09'28.050" N
67°49'55.014" W
245.00 m
810I001
71019
WIY

Download Data

Hourly Data (October 2014)
Hourly Data Report for October 4, 2014
Temp Definition
°C
Dew Point Temp Definition
°C
Rel Hum Definition
%
Wind Dir Definition
10's deg

Wind Spd Definition
km/h
Visibility Definition
km
Stn Press Definition
kPa
Hmdx Definition


Wind Chill Definition


Weather Definition


TIME
00:00 8.1 5.0 81 11 2   98.58     LegendNANA
01:00 7.5 4.3 80 9 2   98.52     LegendNANA
02:00 7.3 4.2 81 8 1   98.49     LegendNANA
03:00 6.3 4.5 88 7 1   98.43     LegendNANA
04:00 6.7 4.7 87 0 1   98.44     LegendNANA
05:00 6.3 4.4 87 8 3   98.41     LegendNANA
06:00 6.1 4.6 90 8 2   98.42     LegendNANA
07:00 6.0 5.4 96 6 2   98.40     LegendNANA
08:00 6.5 5.8 96 6 2   98.37     LegendNANA
09:00 9.0 7.7 92 9 3   98.33     LegendNANA
10:00 10.5 8.7 89 9 3   98.26     LegendNANA
11:00 12.7 9.7 82 11 4   98.18     LegendNANA
12:00 15.1 11.2 78 13 6   98.11     LegendNANA
13:00 15.4 12.0 80 14 6   98.03     LegendNANA
14:00 15.2 12.7 85 14 4   98.00     LegendNANA
15:00 15.6 12.8 83 13 4   97.93     LegendNANA
16:00 14.6 13.5 93 12 4   97.90     LegendNANA
17:00 14.3 13.4 94 12 2   97.89     LegendNANA
18:00 14.5 13.4 93 12 3   97.84     LegendNANA
19:00 14.8 13.5 92 11 3   97.84     LegendNANA
20:00 14.9 13.4 91 11 4   97.82     LegendNANA
21:00 15.1 13.5 90 11 4   97.81     LegendNANA
22:00 15.3 13.8 91 11 6   97.75     LegendNANA
23:00 15.4 13.9 91 11 6   97.72     LegendNANA

Notes on Data Quality.

Legend

  • E = Estimated
  • M = Missing
  • NA = Not Available
  • ‡ = Partner data that is not subject to review by the National Climate Archives
Date modified: